Wetterdaten: aktuell Freitag, 25.05.2018 22:05
Datum Zeit Wetterhtte Helligkeit Boden -10cm Boden 5cm Temp S Luftfeuchte Luftdruck Regen Wind Richtung Richtung Sonnenschein UV Taupunkt Windchill Windben
25.05.2018 22:05 18,3 C -21,9 C 19,2 C 16,8 C 15,2 C 82 % 1019,1 hPa 0,0 l/m 3,7 km/h S-SO 161 0 min 0,0 UV-I 15,2 C 18,3 C 6,9 km/h
25.05.2018 22:00 18,5 C -21,9 C 19,2 C 17,0 C 15,4 C 82 % 1019,1 hPa 0,0 l/m 3,2 km/h S-SO 161 0 min 0,0 UV-I 15,4 C 18,5 C 3,2 km/h
25.05.2018 21:55 18,7 C -21,9 C 19,2 C 17,1 C 15,8 C 81 % 1019,1 hPa 0,0 l/m 1,6 km/h S-SO 161 0 min 0,0 UV-I 15,4 C 18,7 C 6,6 km/h
25.05.2018 21:50 18,9 C -21,9 C 19,2 C 17,2 C 16,0 C 80 % 1018,8 hPa 0,0 l/m 0,0 km/h O-SO 116 0 min 0,0 UV-I 15,4 C 18,9 C 0,0 km/h
25.05.2018 21:45 19,1 C -21,9 C 19,2 C 17,2 C 16,2 C 80 % 1018,8 hPa 0,0 l/m 0,0 km/h S 184 0 min 0,0 UV-I 15,6 C 19,1 C 0,0 km/h
25.05.2018 21:40 19,2 C -21,9 C 19,3 C 17,4 C 16,4 C 80 % 1018,8 hPa 0,0 l/m 0,0 km/h S-SW 206 0 min 0,0 UV-I 15,7 C 19,2 C 0,0 km/h
25.05.2018 21:35 19,4 C -21,6 C 19,3 C 17,5 C 16,5 C 79 % 1018,8 hPa 0,0 l/m 0,0 km/h S-SO 161 0 min 0,0 UV-I 15,7 C 19,4 C 0,0 km/h
25.05.2018 21:30 19,6 C -21,4 C 19,3 C 17,7 C 16,9 C 79 % 1018,4 hPa 0,0 l/m 0,0 km/h S-SO 161 0 min 0,0 UV-I 15,9 C 19,6 C 0,0 km/h
25.05.2018 21:25 19,7 C -21,4 C 19,3 C 17,7 C 17,2 C 78 % 1018,4 hPa 0,0 l/m 0,8 km/h S-SO 161 0 min 0,0 UV-I 15,8 C 19,7 C 0,0 km/h
25.05.2018 21:20 19,8 C -20,9 C 19,3 C 17,9 C 17,3 C 78 % 1018,4 hPa 0,0 l/m 1,6 km/h S-SO 161 0 min 0,0 UV-I 15,8 C 19,8 C 0,0 km/h
25.05.2018 21:15 20,1 C -20,7 C 19,3 C 17,9 C 17,5 C 77 % 1018,4 hPa 0,0 l/m 1,6 km/h S 184 0 min 0,0 UV-I 15,9 C 20,1 C 4,5 km/h
25.05.2018 21:10 20,3 C -20,1 C 19,3 C 18,0 C 17,8 C 76 % 1018,2 hPa 0,0 l/m 1,6 km/h S-SO 161 0 min 0,0 UV-I 15,9 C 20,3 C 0,0 km/h
25.05.2018 21:05 20,5 C -19,3 C 19,3 C 18,2 C 18,1 C 76 % 1018,2 hPa 0,0 l/m 1,3 km/h S-SO 161 0 min 0,0 UV-I 16,1 C 20,5 C 2,9 km/h
25.05.2018 21:00 20,7 C -17,7 C 19,3 C 18,3 C 18,5 C 75 % 1018,2 hPa 0,0 l/m 0,5 km/h S 184 0 min 0,0 UV-I 16,1 C 20,7 C 5,8 km/h
25.05.2018 20:55 20,8 C -15,9 C 19,3 C 18,5 C 18,7 C 74 % 1018,2 hPa 0,0 l/m 0,3 km/h S-SO 161 0 min 0,0 UV-I 16,0 C 20,8 C 2,7 km/h
25.05.2018 20:50 20,9 C -13,6 C 19,3 C 18,5 C 19,2 C 73 % 1018,4 hPa 0,0 l/m 1,6 km/h S-SO 161 0 min 0,0 UV-I 15,9 C 20,9 C 0,0 km/h
25.05.2018 20:45 21,1 C -12,9 C 19,3 C 18,6 C 19,3 C 73 % 1018,4 hPa 0,0 l/m 2,4 km/h N-NO 26 0 min 0,0 UV-I 16,1 C 21,1 C 0,0 km/h
25.05.2018 20:40 21,3 C -11,9 C 19,3 C 18,7 C 20,0 C 72 % 1018,4 hPa 0,0 l/m 1,6 km/h S 184 0 min 0,0 UV-I 16,0 C 21,3 C 6,4 km/h
25.05.2018 20:35 21,5 C -11,0 C 19,3 C 18,9 C 20,4 C 72 % 1018,4 hPa 0,0 l/m 0,5 km/h O-SO 116 0 min 0,0 UV-I 16,2 C 21,5 C 2,9 km/h
25.05.2018 20:30 21,7 C -9,3 C 19,3 C 18,9 C 21,0 C 71 % 1018,1 hPa 0,0 l/m 0,3 km/h N 4 0 min 0,0 UV-I 16,2 C 21,7 C 2,7 km/h
25.05.2018 20:25 21,7 C -7,8 C 19,3 C 18,9 C 21,2 C 70 % 1018,1 hPa 0,0 l/m 0,3 km/h N-NW 341 0 min 0,0 UV-I 16,0 C 21,7 C 0,0 km/h
25.05.2018 20:20 21,9 C -6,8 C 19,3 C 19,1 C 21,7 C 69 % 1018,1 hPa 0,0 l/m 1,6 km/h S 184 0 min 0,1 UV-I 15,9 C 21,9 C 0,0 km/h
25.05.2018 20:15 22,0 C -5,9 C 19,4 C 19,0 C 22,0 C 68 % 1018,1 hPa 0,0 l/m 2,7 km/h W 274 0 min 0,1 UV-I 15,8 C 22,0 C 3,5 km/h
25.05.2018 20:10 22,1 C 9,0 C 19,3 C 19,0 C 22,0 C 66 % 1018,2 hPa 0,0 l/m 3,5 km/h W-NW 296 5 min 0,1 UV-I 15,4 C 22,1 C 3,2 km/h
25.05.2018 20:05 22,3 C 13,7 C 19,4 C 19,0 C 22,4 C 65 % 1018,2 hPa 0,0 l/m 2,7 km/h S 184 5 min 0,1 UV-I 15,4 C 22,3 C 5,0 km/h
25.05.2018 20:00 22,4 C 17,0 C 19,4 C 19,3 C 23,2 C 64 % 1018,2 hPa 0,0 l/m 0,8 km/h S 184 5 min 0,2 UV-I 15,2 C 22,4 C 3,2 km/h
25.05.2018 19:55 22,4 C 18,2 C 19,4 C 19,3 C 23,4 C 64 % 1018,2 hPa 0,0 l/m 1,1 km/h S-SO 161 5 min 0,2 UV-I 15,2 C 22,4 C 3,2 km/h
25.05.2018 19:50 22,4 C 19,8 C 19,4 C 19,4 C 23,6 C 63 % 1018,2 hPa 0,0 l/m 2,4 km/h W-SW 251 5 min 0,2 UV-I 15,0 C 22,4 C 3,5 km/h
25.05.2018 19:45 22,5 C 20,3 C 19,4 C 19,4 C 23,9 C 63 % 1018,2 hPa 0,0 l/m 1,9 km/h S 184 5 min 0,3 UV-I 15,1 C 22,5 C 0,0 km/h
25.05.2018 19:40 22,6 C 21,6 C 19,4 C 19,4 C 24,1 C 63 % 1018,2 hPa 0,0 l/m 0,3 km/h W 274 5 min 0,3 UV-I 15,2 C 22,6 C 2,9 km/h
25.05.2018 19:35 22,7 C 22,9 C 19,4 C 19,6 C 24,1 C 63 % 1018,2 hPa 0,0 l/m 0,8 km/h W 274 5 min 0,3 UV-I 15,3 C 22,7 C 0,0 km/h
25.05.2018 19:30 22,8 C 23,9 C 19,4 C 19,6 C 24,2 C 63 % 1018,2 hPa 0,0 l/m 1,3 km/h S-SO 161 5 min 0,4 UV-I 15,4 C 22,8 C 0,0 km/h
25.05.2018 19:25 22,9 C 24,9 C 19,4 C 19,7 C 24,4 C 62 % 1018,2 hPa 0,0 l/m 1,3 km/h S-SO 161 5 min 0,4 UV-I 15,2 C 22,9 C 0,0 km/h
25.05.2018 19:20 23,1 C 24,3 C 19,4 C 19,7 C 24,4 C 62 % 1018,2 hPa 0,0 l/m 1,6 km/h O-SO 116 5 min 0,4 UV-I 15,4 C 23,1 C 0,0 km/h
25.05.2018 19:15 23,1 C 23,0 C 19,4 C 19,7 C 24,2 C 62 % 1018,2 hPa 0,0 l/m 1,6 km/h SO 139 5 min 0,5 UV-I 15,4 C 23,1 C 0,0 km/h
25.05.2018 19:10 23,2 C 25,9 C 19,5 C 19,8 C 24,6 C 62 % 1018,2 hPa 0,0 l/m 1,9 km/h NW 319 5 min 0,6 UV-I 15,5 C 23,2 C 3,2 km/h
25.05.2018 19:05 23,2 C 25,4 C 19,5 C 19,8 C 24,5 C 62 % 1018,2 hPa 0,0 l/m 1,6 km/h S-SW 206 5 min 0,6 UV-I 15,5 C 23,2 C 4,0 km/h
25.05.2018 19:00 23,3 C 27,2 C 19,5 C 19,9 C 24,6 C 62 % 1018,2 hPa 0,0 l/m 1,6 km/h SO 139 5 min 0,6 UV-I 15,6 C 23,3 C 5,6 km/h
25.05.2018 18:55 23,5 C 27,6 C 19,5 C 20,0 C 24,5 C 61 % 1018,2 hPa 0,0 l/m 1,9 km/h W-NW 296 5 min 0,7 UV-I 15,5 C 23,5 C 0,0 km/h
25.05.2018 18:50 23,5 C 27,0 C 19,5 C 20,1 C 24,0 C 61 % 1018,3 hPa 0,0 l/m 1,6 km/h NW 319 5 min 0,7 UV-I 15,5 C 23,5 C 2,9 km/h
25.05.2018 18:45 23,6 C 23,1 C 19,5 C 20,0 C 24,0 C 61 % 1018,3 hPa 0,0 l/m 1,9 km/h SO 139 0 min 0,7 UV-I 15,6 C 23,6 C 0,0 km/h
_ Min-Zeit 06:20 04:31 08:05 05:50 05:30 18:00 20:30 - 21:50 - - - 22:05 06:20 01:46 21:50
Minimum _ 14,8 C -22,0 C 16,8 C 14,2 C 12,9 C 58 % 1018,1 hPa - 0,0 km/h - - - 0,0 UV-I 14,0 C 13,9 C 0,0 km/h
_ Max-Zeit 17:55 13:50 19:10 16:15 16:00 05:10 01:06 10:15 14:50 - - 20:10 14:45 12:35 17:55 13:55
Maximum _ 24,9 C 53,5 C 19,5 C 20,7 C 28,2 C 96 % 1019,4 hPa 0,1 l/m 10,9 km/h
SO
- - 5 min 3,6 UV-I 18,0 C 24,9 C 22,6 km/h
SO
Durchschnitt _ 19,2 C 6,3 C 18,1 C 17,3 C 19,5 C 82 % 1018,7 hPa #0,2 l/m 3,2 km/h N-NO - #5:35 h 1,4 UV-I 15,7 C 19,1 C 4,1 km/h